Weather History for Idabel, OK

Change the Weather History Date:

Monday, November 5, 2012

  Actual Average (KDEQ) Record (KDEQ)
Temperature  
Mean Temperature 58 °F 57 °F  
Max Temperature 71 °F 70 °F 84 °F (1987)
Min Temperature 44 °F 44 °F 21 °F (1991)
Degree Days  
Heating Degree Days 8 9  
Month to date heating degree days 41  
Since 1 July heating degree days 174  
Cooling Degree Days 0 1  
Month to date cooling degree days 5  
Year to date cooling degree days 1939  
Growing Degree Days 8 (Base 50)    
Moisture  
Dew Point 42 °F    
Average Humidity 61    
Maximum Humidity 87    
Minimum Humidity 23    
Precipitation  
Precipitation 0.00 in 0.17 in 2.64 in (1994)
Month to date precipitation 0.84  
Year to date precipitation 40.56  
Snow  
Snow 0.00 in - - ()
Month to date snowfall  
Since 1 July snowfall  
Since 1 September snowfall  
Snow Depth -    
Sea Level Pressure  
Sea Level Pressure 30.04 in    
Wind  
Wind Speed 6 mph (North)    
Max Wind Speed 18 mph    
Max Gust Speed 28 mph    
Visibility 10 miles    
Events      
T = Trace of Precipitation, MM = Missing Value Source: NWS Daily Summary

Daily Weather History Graph

Daily Weather History Graph

Search for Another Location

Airport:

Trip Planner

Search our weather history database for the weather conditions in past years. The results will help you decide how hot, cold, wet, or windy it might be!

Date:

Astronomy

Nov. 05, 2012 Rise Set
Actual Time 6:42 AM CST 5:22 PM CST
Civil Twilight 6:16 AM CST 5:48 PM CST
Nautical Twilight 5:47 AM CST 6:18 PM CST
Astronomical Twilight 5:17 AM CST 6:47 PM CST
Moon 11:00 PM CST (11/5) 12:02 PM CST (11/5)
Length of Visible Light 11h 31m
Length of Day
10h 39m
Waning Gibbous, 62% of the Moon is Illuminated
Nov 5
Waning Gibbous
Nov 6
Last Quarter
Nov 13
New
Nov 20
First Quarter
Nov 28
Full

Hourly Weather History & Observations

Time (CST) Temp. Windchill Dew Point Humidity Pressure Visibility Wind Dir Wind Speed Gust Speed Precip Events Conditions
12:15 AM 55.4 °F - 46.4 °F 72% 30.10 in 10.0 mi East 8.1 mph - N/A   Mostly Cloudy
12:35 AM 55.4 °F - 46.4 °F 72% 30.10 in 10.0 mi East 8.1 mph - N/A   Mostly Cloudy
12:55 AM 53.6 °F - 46.4 °F 77% 30.09 in 10.0 mi East 6.9 mph - N/A   Scattered Clouds
1:15 AM 53.6 °F - 46.4 °F 77% 30.09 in 10.0 mi East 4.6 mph - N/A   Scattered Clouds
1:35 AM 51.8 °F - 46.4 °F 82% 30.09 in 10.0 mi East 3.5 mph - N/A   Scattered Clouds
1:55 AM 51.8 °F - 46.4 °F 82% 30.09 in 10.0 mi East 3.5 mph - N/A   Clear
2:15 AM 51.8 °F - 46.4 °F 82% 30.09 in 10.0 mi Calm Calm - N/A   Scattered Clouds
2:35 AM 50.0 °F - 46.4 °F 87% 30.08 in 10.0 mi East 4.6 mph - N/A   Scattered Clouds
2:55 AM 50.0 °F - 46.4 °F 87% 30.08 in 10.0 mi ENE 3.5 mph - N/A   Scattered Clouds
3:15 AM 50.0 °F - 46.4 °F 87% 30.08 in 10.0 mi ENE 3.5 mph - N/A   Mostly Cloudy
3:35 AM 50.0 °F - 46.4 °F 87% 30.08 in 10.0 mi NE 4.6 mph - N/A   Mostly Cloudy
3:55 AM 50.0 °F - 46.4 °F 87% 30.08 in 10.0 mi NE 4.6 mph - N/A   Scattered Clouds
4:15 AM 50.0 °F - 46.4 °F 87% 30.07 in 10.0 mi ENE 3.5 mph - N/A   Scattered Clouds
4:35 AM 50.0 °F - 46.4 °F 87% 30.06 in 10.0 mi East 3.5 mph - N/A   Scattered Clouds
4:55 AM 50.0 °F - 44.6 °F 82% 30.07 in 10.0 mi Calm Calm - N/A   Scattered Clouds
5:15 AM 50.0 °F - 44.6 °F 82% 30.07 in 10.0 mi NE 3.5 mph - N/A   Mostly Cloudy
5:35 AM 50.0 °F - 46.4 °F 87% 30.07 in 10.0 mi NNE 4.6 mph - N/A   Overcast
5:55 AM 50.0 °F - 46.4 °F 87% 30.07 in 10.0 mi Calm Calm - N/A   Overcast
6:15 AM 50.0 °F - 46.4 °F 87% 30.06 in 10.0 mi ENE 4.6 mph - N/A   Overcast
6:35 AM 50.0 °F - 44.6 °F 82% 30.05 in 10.0 mi East 5.8 mph - N/A   Scattered Clouds
6:55 AM 50.0 °F - 44.6 °F 82% 30.05 in 10.0 mi East 4.6 mph - N/A   Clear
7:15 AM 50.0 °F - 44.6 °F 82% 30.06 in 10.0 mi East 4.6 mph - N/A   Scattered Clouds
7:35 AM 50.0 °F - 44.6 °F 82% 30.06 in 10.0 mi East 3.5 mph - N/A   Scattered Clouds
7:55 AM 51.8 °F - 44.6 °F 76% 30.06 in 10.0 mi East 4.6 mph - N/A   Mostly Cloudy
8:15 AM 51.8 °F - 46.4 °F 82% 30.06 in 10.0 mi ESE 3.5 mph - N/A   Mostly Cloudy
8:35 AM 51.8 °F - 46.4 °F 82% 30.06 in 10.0 mi East 3.5 mph - N/A   Scattered Clouds
8:55 AM 53.6 °F - 46.4 °F 77% 30.06 in 10.0 mi ESE 3.5 mph - N/A   Mostly Cloudy
9:15 AM 55.4 °F - 46.4 °F 72% 30.06 in 10.0 mi Calm Calm - N/A   Overcast
9:35 AM 55.4 °F - 46.4 °F 72% 30.06 in 10.0 mi Calm Calm - N/A   Overcast
9:55 AM 57.2 °F - 46.4 °F 67% 30.06 in 10.0 mi Calm Calm - N/A   Overcast
10:15 AM 59.0 °F - 46.4 °F 63% 30.06 in 10.0 mi Calm Calm - N/A   Overcast
10:35 AM 59.0 °F - 48.2 °F 67% 30.06 in 10.0 mi WNW 3.5 mph - N/A   Overcast
10:55 AM 62.6 °F - 48.2 °F 59% 30.04 in 10.0 mi SW 5.8 mph - N/A   Mostly Cloudy
11:15 AM 62.6 °F - 50.0 °F 63% 30.04 in 10.0 mi West 6.9 mph - N/A   Scattered Clouds
11:35 AM 64.4 °F - 48.2 °F 56% 30.04 in 10.0 mi NW 6.9 mph - N/A   Clear
11:55 AM 64.4 °F - 46.4 °F 52% 30.02 in 10.0 mi NW 6.9 mph - N/A   Clear
12:15 PM 62.6 °F - 46.4 °F 55% 30.02 in 10.0 mi NW 6.9 mph - N/A   Clear
12:35 PM 62.6 °F - 48.2 °F 59% 30.01 in 10.0 mi WNW 8.1 mph - N/A   Clear
12:55 PM 64.4 °F - 46.4 °F 52% 29.99 in 10.0 mi WNW 8.1 mph - N/A   Clear
1:15 PM 64.4 °F - 46.4 °F 52% 29.99 in 10.0 mi WNW 6.9 mph - N/A   Clear
1:35 PM 68.0 °F - 46.4 °F 46% 29.98 in 10.0 mi Calm Calm - N/A   Clear
1:55 PM 69.8 °F - 46.4 °F 43% 29.97 in 10.0 mi West 10.4 mph - N/A   Clear
2:15 PM 71.6 °F - 37.4 °F 29% 29.96 in 10.0 mi NNW 18.4 mph 27.6 mph N/A   Clear
2:35 PM 71.6 °F - 35.6 °F 27% 29.96 in 10.0 mi NW 15.0 mph 21.9 mph N/A   Clear
2:55 PM 71.6 °F - 35.6 °F 27% 29.96 in 10.0 mi NNW 16.1 mph 23.0 mph N/A   Clear
3:15 PM 71.6 °F - 33.8 °F 25% 29.96 in 10.0 mi North 13.8 mph 24.2 mph N/A   Clear
3:35 PM 71.6 °F - 33.8 °F 25% 29.96 in 10.0 mi North 13.8 mph 19.6 mph N/A   Clear
3:55 PM 71.6 °F - 32.0 °F 23% 29.97 in 10.0 mi NW 16.1 mph 25.3 mph N/A   Clear
4:15 PM 71.6 °F - 32.0 °F 23% 29.97 in 10.0 mi NW 11.5 mph 18.4 mph N/A   Clear
4:35 PM 69.8 °F - 32.0 °F 25% 29.97 in 10.0 mi NNW 13.8 mph 23.0 mph N/A   Clear
4:55 PM 68.0 °F - 32.0 °F 26% 29.97 in 10.0 mi NNW 12.7 mph 17.3 mph N/A   Clear
5:15 PM 66.2 °F - 32.0 °F 28% 29.98 in 10.0 mi NNW 9.2 mph 16.1 mph N/A   Clear
5:35 PM 64.4 °F - 32.0 °F 30% 29.98 in 10.0 mi NNW 9.2 mph - N/A   Clear
5:55 PM 62.6 °F - 33.8 °F 34% 29.99 in 10.0 mi NNW 9.2 mph - N/A   Clear
6:15 PM 60.8 °F - 33.8 °F 36% 30.00 in 10.0 mi NNW 8.1 mph - N/A   Clear
6:35 PM 59.0 °F - 35.6 °F 42% 30.01 in 10.0 mi NW 6.9 mph - N/A   Clear
6:55 PM 59.0 °F - 35.6 °F 42% 30.02 in 10.0 mi NNW 5.8 mph - N/A   Clear
7:15 PM 59.0 °F - 35.6 °F 42% 30.02 in 10.0 mi NNW 12.7 mph - N/A   Clear
7:35 PM 59.0 °F - 37.4 °F 45% 30.03 in 10.0 mi NNW 10.4 mph - N/A   Clear
7:55 PM 57.2 °F - 37.4 °F 48% 30.04 in 10.0 mi North 12.7 mph - N/A   Clear
8:15 PM 55.4 °F - 39.2 °F 54% 30.04 in 10.0 mi North 12.7 mph 19.6 mph N/A   Clear
8:35 PM 55.4 °F - 39.2 °F 54% 30.06 in 10.0 mi NNE 11.5 mph - N/A   Clear
8:55 PM 53.6 °F - 37.4 °F 54% 30.06 in 10.0 mi North 13.8 mph 23.0 mph N/A   Clear
9:15 PM 53.6 °F - 37.4 °F 54% 30.06 in 10.0 mi North 15.0 mph 19.6 mph N/A   Clear
9:35 PM 51.8 °F - 37.4 °F 58% 30.07 in 10.0 mi North 6.9 mph - N/A   Clear
9:55 PM 50.0 °F - 37.4 °F 62% 30.08 in 10.0 mi NW 4.6 mph - N/A   Clear
10:15 PM 50.0 °F - 37.4 °F 62% 30.08 in 10.0 mi North 3.5 mph - N/A   Clear
10:35 PM 48.2 °F - 37.4 °F 66% 30.08 in 10.0 mi Calm Calm - N/A   Clear
10:55 PM 46.4 °F 44.3 °F 37.4 °F 71% 30.08 in 10.0 mi West 4.6 mph - N/A   Clear
11:15 PM 46.4 °F 44.3 °F 35.6 °F 66% 30.08 in 10.0 mi WNW 4.6 mph - N/A   Clear
11:35 PM 44.6 °F 41.4 °F 35.6 °F 71% 30.09 in 10.0 mi NW 5.8 mph - N/A   Clear
11:55 PM 44.6 °F 41.4 °F 37.4 °F 76% 30.08 in 10.0 mi NNW 5.8 mph - N/A   Clear